#timestamp,LO_Frequency,Hit,StdDev 
1585159815.4,286047024.7,P
1585159835.2,286047024.6,P
1585159855.1,286047025.0,P
1585159856.0,286047025.0,Y
1585159875.8,286047001.2,P
1585159895.7,286046998.2,N
1585159915.5,286047000.6,N
1585159935.3,286047000.1,N
1585159955.2,286047002.7,N
1585159975.0,286047000.2,N
1585159975.9,286047000.2,N
1585159995.8,286047002.7,N
1585160015.6,286047001.3,N
1585160035.4,286047004.0,N
1585160055.3,286047003.5,N
1585160075.1,286047003.1,N
1585160095.8,286047005.8,N
1585160115.7,286047004.8,N
1585160135.5,286047004.6,N
1585160155.4,286047007.2,N
1585160175.2,286047006.4,N
1585160195.0,286047008.5,N
1585160195.9,286047008.5,N
1585160215.8,286047007.7,N
1585160235.6,286047010.7,N
1585160255.4,286047010.6,N
1585160275.3,286047009.8,N
1585160295.1,286047011.6,N
1585160315.9,286047011.2,N
1585160335.7,286047013.6,N
1585160355.5,286047013.3,N
1585160375.4,286047013.7,N
1585160395.2,286047015.5,N
1585160415.0,286047015.1,N
1585160415.9,286047015.1,Y
1585160435.8,286047008.5,P
1585160455.6,286047008.5,P
1585160475.5,286047008.1,P
1585160495.3,286047010.4,Y
1585160515.1,286047000.6,P
1585160535.9,286047002.3,N
1585160555.7,286047002.6,N
1585160575.6,286047004.3,N
1585160595.4,286047004.4,N
1585160615.2,286047003.8,N
1585160635.1,286047003.0,N
1585160636.0,286047003.0,N
1585160655.8,286047005.0,N
1585160675.6,286047004.9,N
1585160695.5,286047006.7,Y
1585160715.3,286047003.6,P
1585160735.2,286047005.8,P
1585160755.9,286047007.2,P
1585160775.7,286047008.3,Y
1585160795.6,286047004.3,P
1585160815.4,286047003.2,P
1585160835.3,286047003.2,P
1585160855.1,286047004.2,Y
1585160856.0,286047004.2,P
1585160875.8,286046998.3,P
1585160895.7,286047002.7,N
1585160915.5,286047003.7,N
1585160935.3,286047005.9,N
1585160955.2,286047003.4,N
1585160975.0,286047003.6,N
1585160975.9,286047003.6,N
1585160995.8,286047002.5,N
1585161015.6,286047004.0,N
1585161035.4,286047003.2,N
1585161055.3,286047005.5,Y
1585161075.1,286047002.2,P
1585161095.9,286046999.8,N
1585161115.7,286047000.4,N
1585161135.5,286046999.9,N
1585161155.4,286047000.6,N
1585161175.2,286047001.0,N
1585161195.0,286047000.6,N
1585161195.9,286047000.6,N
1585161215.8,286047000.4,N
1585161235.6,286047000.6,N
1585161255.5,286047002.2,N
1585161275.3,286047002.0,N
1585161295.1,286047001.7,N
1585161315.9,286047002.2,N
1585161335.7,286047003.6,Y
1585161355.5,286047004.2,P
1585161375.4,286047007.1,P
1585161395.2,286047009.1,P
1585161415.1,286047010.1,Y
1585161416.0,286047010.1,P
1585161435.8,286047005.9,N
1585161455.6,286047007.6,P
1585161475.5,286047007.3,Y
1585161495.3,286046998.7,P
1585161515.2,286046999.3,N
1585161535.9,286046999.0,N
1585161555.7,286046996.6,N
1585161575.6,286046996.6,N
1585161595.4,286046997.9,N
1585161615.2,286046999.5,N
1585161635.1,286046997.0,N
1585161636.0,286046997.0,N
1585161655.8,286046999.2,N
1585161675.7,286046998.8,N
1585161695.5,286046998.8,N
1585161715.3,286047001.2,N
1585161735.2,286047001.0,N
1585161755.0,286047000.8,N
1585161755.9,286047000.8,N
1585161775.7,286047001.2,N
1585161795.6,286046999.8,N
1585161815.4,286046999.7,N
1585161835.3,286047000.4,N
1585161855.1,286046999.8,N
1585161856.0,286046999.8,N
1585161875.8,286047002.5,N
1585161895.7,286047002.1,N
1585161915.5,286047003.9,N
1585161935.3,286047003.2,N
1585161955.2,286047004.4,N
1585161975.0,286047003.7,N
1585161975.9,286047003.7,N
1585161995.8,286047003.5,N
1585162015.6,286047004.0,N
1585162035.4,286047003.6,N
1585162055.3,286047003.7,N
1585162075.1,286047005.9,N
1585162095.9,286047003.3,N
1585162115.7,286047003.1,N
1585162135.5,286047003.4,N
1585162155.4,286047005.5,N
1585162175.2,286047003.3,N
1585162195.0,286047005.4,N
1585162195.9,286047005.4,N
1585162215.8,286047005.3,N
1585162235.6,286047007.0,Y
1585162255.5,286047005.2,P
1585162275.3,286047004.9,P
1585162295.1,286047005.2,P
1585162315.9,286047007.4,Y
1585162335.7,286047002.2,P
1585162355.5,286047001.6,N
1585162375.4,286047001.7,N
1585162395.2,286047001.6,N
1585162415.1,286047003.5,Y
1585162416.0,286047003.5,P
1585162435.8,286046999.8,N
1585162455.6,286047002.0,N
1585162475.5,286047005.7,Y
1585162495.3,286047005.5,P
1585162515